Content
SEND FEEDBACK

Daily
Averages
Monthly
Summary
United States of America

CAPUTA, SOUTH DAKOTA


Home > North America > United States > South Dakota
Elevation: 3149 feet     Latitude: 44 03N     Longitude: 103 04W

WEATHER
 
SELECT A DAY
Number of Records: 205,294;   Date Range: 1/1/95 - 12/27/14
 
SHARE

PRINT THIS DATA

[ ← Previous Day ]
WEATHER ALMANAC - APRIL 24, 2013
[ Next Day → ]
[ °C ]   °F
Weather ElementAverageHighLow
Temperature36.1 °F45 °F (3:52 pm)23 °F (5:52 am)
Dewpoint23.3 °F28.9 °F (12:52 pm)16 °F (5:52 am)
Humidity60.7 %74 % (5:52 am)42 % (3:52 pm)
Barometer30.16 in30.19 in (11:52 am)30.11 in (3:52 am)
Wind Speed14.3 mph31.1 mph (11:52 am)
Wind Gust42.6 mph (11:52 am)
Weather ElementAverage
Visibility10 mi
Wind DirectionW (267 °)

Weather ElementTotal
Precipitation---
Heating Degree Days31 (Base 65)
Averaged from 23 records on April 24, 2013
WEATHER CONDITIONS BREAKOUT
WIND DIRECTION BREAKOUT
WEATHER BY HOUR - APRIL 24, 2013
[ °C ]   °F
Local TimeTemperatureDewpointHumidityBarometerVisibilityWind DirectionWind SpeedGust SpeedPrecipitationEventsConditions
1:52 AM28.0 °F17.1 °F63 %30.15 in10.0 miCalmClear
2:52 AM30.0 °F19.0 °F64 %30.13 in10.0 miNW (310°)8.1 mphPartly Cloudy
3:52 AM27.0 °F18.0 °F69 %30.11 in10.0 miSSW (200°)4.6 mphClear
4:52 AM26.1 °F17.1 °F69 %30.12 in10.0 miCalmClear
5:52 AM23.0 °F16.0 °F74 %30.12 in10.0 miWest (280°)4.6 mphClear
6:52 AM33.1 °F23.0 °F66 %30.11 in10.0 miNW (310°)15.0 mphClear
7:52 AM37.0 °F27.0 °F67 %30.12 in10.0 miNW (310°)19.6 mph26.5 mphClear
8:52 AM39.0 °F26.1 °F60 %30.13 in10.0 miNNW (330°)27.6 mph36.8 mphClear
9:52 AM39.0 °F25.0 °F57 %30.15 in10.0 miNNW (330°)26.5 mph38.0 mphScattered Clouds
10:52 AM42.1 °F26.1 °F53 %30.16 in10.0 miNNW (330°)21.9 mphPartly Cloudy
11:52 AM37.9 °F27.0 °F65 %30.19 in9.0 miNNW (340°)31.1 mph42.6 mph0.00 inSnowLight Snow
12:52 PM39.0 °F28.9 °F67 %30.19 in10.0 miNorth (350°)25.3 mph34.5 mph0.00 inOvercast
1:52 PM42.1 °F26.1 °F53 %30.19 in10.0 miNW (310°)25.3 mph31.1 mphScattered Clouds
2:52 PM44.1 °F25.0 °F47 %30.19 in10.0 miNNW (330°)16.1 mph23.0 mphPartly Cloudy
3:52 PM45.0 °F23.0 °F42 %30.18 in10.0 miNNW (330°)21.9 mph31.1 mphMostly Cloudy
4:52 PM45.0 °F24.1 °F44 %30.17 in10.0 miNNW (330°)21.9 mph28.8 mphMostly Cloudy
5:52 PM44.1 °F24.1 °F45 %30.17 in10.0 miNNW (340°)18.4 mphClear
6:52 PM42.1 °F24.1 °F49 %30.15 in10.0 miNNW (340°)15.0 mphClear
7:52 PM36.0 °F24.1 °F62 %30.16 in10.0 miNorth (350°)10.4 mphClear
8:52 PM34.0 °F24.1 °F67 %30.18 in10.0 miWNW (290°)4.6 mphClear
9:52 PM33.1 °F24.1 °F70 %30.19 in10.0 miSW (220°)5.8 mphClear
10:52 PM33.1 °F24.1 °F70 %30.16 in10.0 miSSW (210°)5.8 mphClear
11:52 PM30.9 °F23.0 °F72 %30.15 in10.0 miCalmClear
Hourly data recorded from KRAP, located miles away from Caputa, South Dakota







STORIES FROM OUR PARTNERS